Weather History for North Bend, OR

Change the Weather History Date:

Wednesday, November 14, 2012

  Actual Average Record
Temperature  
Mean Temperature 53 °F 49 °F  
Max Temperature 61 °F 55 °F 69 °F (1906)
Min Temperature 45 °F 43 °F 23 °F (1978)
Degree Days  
Heating Degree Days 12 16  
Month to date heating degree days 171 208  
Since 1 July heating degree days 1070 1174  
Cooling Degree Days 0 0  
Month to date cooling degree days 0 0  
Year to date cooling degree days 1 2  
Growing Degree Days 2 (Base 50)    
Moisture  
Dew Point 47 °F    
Average Humidity 90    
Maximum Humidity 100    
Minimum Humidity 64    
Precipitation  
Precipitation 0.00 in 0.34 in 2.16 in (1941)
Month to date precipitation 1.66 4.28  
Year to date precipitation 36.55 47.83  
Sea Level Pressure  
Sea Level Pressure 30.21 in    
Wind  
Wind Speed 5 mph (NE)    
Max Wind Speed 10 mph    
Max Gust Speed -    
Visibility 10 miles    
Events      
T = Trace of Precipitation, MM = Missing Value Source: NWS Daily Summary

Daily Weather History Graph

Daily Weather History Graph

Search for Another Location

Airport:

Trip Planner

Search our weather history database for the weather conditions in past years. The results will help you decide how hot, cold, wet, or windy it might be!

Date:

Astronomy

Nov. 14, 2012 Rise Set
Actual Time 7:09 AM PST 4:52 PM PST
Civil Twilight 6:39 AM PST 5:23 PM PST
Nautical Twilight 6:04 AM PST 5:57 PM PST
Astronomical Twilight 5:30 AM PST 6:31 PM PST
Moon 8:07 AM PST (11/14) 5:45 PM PST (11/14)
Length of Visible Light 10h 44m
Length of Day
9h 42m
New Moon, 1% of the Moon is Illuminated
Nov 14
New Moon
Nov 20
First Quarter
Nov 28
Full
Dec 6
Last Quarter
Dec 13
New

Hourly Weather History & Observations

Time (PST) Temp. Windchill Dew Point Humidity Pressure Visibility Wind Dir Wind Speed Gust Speed Precip Events Conditions
12:15 AM 48.2 °F - 48.2 °F 100% 30.23 in 10.0 mi SE 4.6 mph - N/A   Unknown
12:35 AM 48.2 °F - 48.2 °F 100% 30.23 in 10.0 mi SE 5.8 mph - N/A   Unknown
12:55 AM 46.4 °F 44.3 °F 46.4 °F 100% 30.23 in 10.0 mi SE 4.6 mph - N/A   Unknown
1:15 AM 46.4 °F 42.9 °F 46.4 °F 100% 30.23 in 9.0 mi SE 6.9 mph - N/A   Unknown
1:35 AM 46.4 °F 44.3 °F 46.4 °F 100% 30.23 in 10.0 mi ESE 4.6 mph - N/A   Unknown
1:55 AM 46.4 °F 44.3 °F 44.6 °F 93% 30.23 in 10.0 mi ESE 4.6 mph - N/A   Unknown
2:15 AM 46.4 °F 44.3 °F 46.4 °F 100% 30.24 in 9.0 mi SE 4.6 mph - N/A   Unknown
2:35 AM 46.4 °F 44.3 °F 46.4 °F 100% 30.23 in 10.0 mi SE 4.6 mph - N/A   Unknown
2:55 AM 46.4 °F 42.9 °F 44.6 °F 93% 30.23 in 10.0 mi ESE 6.9 mph - N/A   Unknown
3:15 AM 46.4 °F 43.5 °F 46.4 °F 100% 30.23 in 10.0 mi SE 5.8 mph - N/A   Unknown
3:35 AM 44.6 °F 40.7 °F 44.6 °F 100% 30.23 in 10.0 mi SE 6.9 mph - N/A   Unknown
3:55 AM 44.6 °F 42.2 °F 44.6 °F 100% 30.23 in 10.0 mi SE 4.6 mph - N/A   Unknown
4:15 AM 44.6 °F 41.4 °F 44.6 °F 100% 30.23 in 10.0 mi SE 5.8 mph - N/A   Unknown
4:35 AM 44.6 °F 40.7 °F 44.6 °F 100% 30.23 in 10.0 mi SE 6.9 mph - N/A   Unknown
4:55 AM 44.6 °F 40.7 °F 44.6 °F 100% 30.23 in 10.0 mi SSE 6.9 mph - N/A   Unknown
5:15 AM 44.6 °F 41.4 °F 44.6 °F 100% 30.23 in 10.0 mi SE 5.8 mph - N/A   Unknown
5:35 AM 44.6 °F 42.2 °F 44.6 °F 100% 30.23 in 10.0 mi ESE 4.6 mph - N/A   Unknown
5:55 AM 44.6 °F 41.4 °F 42.8 °F 93% 30.24 in 10.0 mi SE 5.8 mph - N/A   Unknown
6:15 AM 44.6 °F 41.4 °F 44.6 °F 100% 30.24 in 10.0 mi SE 5.8 mph - N/A   Unknown
6:35 AM 44.6 °F 41.4 °F 44.6 °F 100% 30.24 in 10.0 mi SE 5.8 mph - N/A   Unknown
6:55 AM 44.6 °F - 42.8 °F 93% 30.24 in 10.0 mi Calm Calm - N/A   Unknown
7:15 AM 44.6 °F 42.2 °F 44.6 °F 100% 30.25 in 10.0 mi NE 4.6 mph - N/A   Unknown
7:35 AM 44.6 °F - 42.8 °F 93% 30.25 in 10.0 mi Calm Calm - N/A   Clear
7:55 AM 44.6 °F - 42.8 °F 93% 30.25 in 8.0 mi Calm Calm - N/A   Clear
8:15 AM 46.4 °F - 44.6 °F 93% 30.26 in 10.0 mi Calm Calm - N/A   Clear
8:35 AM 48.2 °F - 48.2 °F 100% 30.26 in 10.0 mi Calm Calm - N/A   Clear
8:55 AM 48.2 °F - 48.2 °F 100% 30.26 in 10.0 mi Calm Calm - N/A   Clear
9:15 AM 48.2 °F - 48.2 °F 100% 30.26 in 10.0 mi Calm Calm - N/A   Clear
9:35 AM 48.2 °F - 46.4 °F 93% 30.26 in 10.0 mi Calm Calm - N/A   Clear
9:55 AM 50.0 °F - 48.2 °F 94% 30.26 in 10.0 mi Calm Calm - N/A   Clear
10:15 AM 51.8 °F - 48.2 °F 88% 30.26 in 10.0 mi North 3.5 mph - N/A   Unknown
10:35 AM 53.6 °F - 48.2 °F 82% 30.26 in 10.0 mi NNE 3.5 mph - N/A   Unknown
10:55 AM 53.6 °F - 50.0 °F 88% 30.25 in 10.0 mi East 3.5 mph - N/A   Clear
11:15 AM 55.4 °F - 48.2 °F 77% 30.25 in 10.0 mi Calm Calm - N/A   Unknown
11:35 AM 55.4 °F - 50.0 °F 82% 30.25 in 10.0 mi Calm Calm - N/A   Unknown
11:55 AM 57.2 °F - 48.2 °F 72% 30.24 in 10.0 mi Calm Calm - N/A   Unknown
12:15 PM 59.0 °F - 48.2 °F 67% 30.23 in 10.0 mi NNE 4.6 mph - N/A   Unknown
12:35 PM 60.8 °F - 48.2 °F 63% 30.22 in 10.0 mi NNE 8.1 mph - N/A   Clear
12:55 PM 60.8 °F - 48.2 °F 63% 30.22 in 10.0 mi NNE 8.1 mph - N/A   Clear
1:15 PM 60.8 °F - 48.2 °F 63% 30.21 in 10.0 mi NNE 6.9 mph - N/A   Clear
1:35 PM 60.8 °F - 48.2 °F 63% 30.21 in 10.0 mi NNE 8.1 mph - N/A   Clear
1:55 PM 60.8 °F - 51.8 °F 72% 30.21 in 10.0 mi North 10.4 mph - N/A   Clear
2:15 PM 60.8 °F - 51.8 °F 72% 30.20 in 10.0 mi North 9.2 mph - N/A   Unknown
2:35 PM 60.8 °F - 50.0 °F 68% 30.19 in 10.0 mi North 12.7 mph - N/A   Unknown
2:55 PM 59.0 °F - 51.8 °F 77% 30.19 in 10.0 mi North 9.2 mph - N/A   Unknown
3:15 PM 59.0 °F - 50.0 °F 72% 30.19 in 10.0 mi North 10.4 mph - N/A   Unknown
3:35 PM 57.2 °F - 51.8 °F 82% 30.19 in 10.0 mi NNE 9.2 mph - N/A   Unknown
3:55 PM 57.2 °F - 50.0 °F 77% 30.19 in 10.0 mi North 10.4 mph - N/A   Unknown
4:15 PM 55.4 °F - 50.0 °F 82% 30.19 in 10.0 mi North 8.1 mph - N/A   Unknown
4:35 PM 55.4 °F - 50.0 °F 82% 30.19 in 10.0 mi North 10.4 mph - N/A   Clear
4:55 PM 53.6 °F - 48.2 °F 82% 30.19 in 10.0 mi North 9.2 mph - N/A   Clear
5:15 PM 53.6 °F - 48.2 °F 82% 30.18 in 10.0 mi North 8.1 mph - N/A   Clear
5:35 PM 51.8 °F - 48.2 °F 88% 30.18 in 10.0 mi North 6.9 mph - N/A   Clear
5:55 PM 51.8 °F - 48.2 °F 88% 30.19 in 10.0 mi North 6.9 mph - N/A   Clear
6:15 PM 51.8 °F - 48.2 °F 88% 30.19 in 10.0 mi North 5.8 mph - N/A   Clear
6:35 PM 48.2 °F - 48.2 °F 100% 30.18 in 10.0 mi North 4.6 mph - N/A   Clear
6:55 PM 48.2 °F - 48.2 °F 100% 30.19 in 10.0 mi NNE 3.5 mph - N/A   Clear
7:15 PM 48.2 °F - 46.4 °F 93% 30.18 in 10.0 mi NNE 3.5 mph - N/A   Clear
7:35 PM 46.4 °F 44.3 °F 44.6 °F 93% 30.18 in 10.0 mi NNE 4.6 mph - N/A   Clear
7:55 PM 46.4 °F - 44.6 °F 93% 30.18 in 10.0 mi Calm Calm - N/A   Clear
8:15 PM 46.4 °F - 44.6 °F 93% 30.18 in 7.0 mi Calm Calm - N/A   Clear
8:35 PM 46.4 °F - 44.6 °F 93% 30.17 in 10.0 mi Calm Calm - N/A   Clear
8:55 PM 44.6 °F 43.1 °F 42.8 °F 93% 30.17 in 3.0 mi North 3.5 mph - N/A   Clear
9:15 PM 44.6 °F - 44.6 °F 100% 30.18 in 5.0 mi Calm Calm - N/A   Unknown
9:35 PM 44.6 °F 42.2 °F 44.6 °F 100% 30.17 in 10.0 mi North 4.6 mph - N/A   Unknown
9:55 PM 44.6 °F 40.7 °F 44.6 °F 100% 30.17 in 10.0 mi NNE 6.9 mph - N/A   Unknown
10:15 PM 44.6 °F 42.2 °F 44.6 °F 100% 30.17 in 9.0 mi North 4.6 mph - N/A   Unknown
10:35 PM 44.6 °F 41.4 °F 44.6 °F 100% 30.16 in 10.0 mi North 5.8 mph - N/A   Unknown
10:55 PM 44.6 °F 42.2 °F 44.6 °F 100% 30.16 in 10.0 mi NNE 4.6 mph - N/A   Unknown
11:15 PM 44.6 °F 42.2 °F 42.8 °F 93% 30.15 in 10.0 mi NNE 4.6 mph - N/A   Unknown
11:35 PM 44.6 °F 43.1 °F 42.8 °F 93% 30.15 in 10.0 mi North 3.5 mph - N/A   Unknown
11:55 PM 44.6 °F 42.2 °F 42.8 °F 93% 30.14 in 10.0 mi North 4.6 mph - N/A   Unknown